Regional Weather Roundup
Issued by NWS

Home | Current Version | Previous Version | Graphics & Text | Print | Product List | Glossary Off
Versions: 1 2 3 4 5 6 7 8 9 10 11 12 13 14 15 16 17 18 19 20 21 22 23 24 25 26 27 28 29 30 31 32 33 34 35 36 37 38 39 40 41 42 43 44 45 46 47 48 49 50

000
ASUS43 KDTX 222110
RWRMI
MICHIGAN HOURLY REGIONAL WEATHER ROUNDUP
NATIONAL WEATHER SERVICE DETROIT/PONTIAC MI
ISSUED BY NATIONAL WEATHER SERVICE GRAND RAPIDS MI
500 PM EDT SAT JUL 22 2017

NOTE: "FAIR" INDICATES FEW OR NO CLOUDS BELOW 12,000 FEET WITH NO
SIGNIFICANT WEATHER AND/OR OBSTRUCTION TO VISIBILITY.

MIZ047>049-052>055-059>063-066>070-074>076-081>083-222200-
SOUTHEAST LOWER MICHIGAN

CITY           SKY/WX    TMP DP  RH WIND       PRES   REMARKS
ADRIAN         PTSUNNY   83  67  58 NW14      29.77S
ALMA           CLOUDY    74  68  82 N8        29.80R
ANN ARBOR      MOSUNNY   87  71  58 W14       29.74F HX  93
BAD AXE        DRIZZLE   67  66  94 E5        29.79S
DETROIT CITY   CLOUDY    83  72  69 E9        29.72F
DETROIT        PTSUNNY   88  73  61 W8        29.73F HX  95
FLINT          CLOUDY    78  72  81 W8        29.76S
GROSSE ILE     CLOUDY    83  73  72 W8        29.71F
HILLSDALE      CLOUDY    82  68  61 W12       29.79S
HOWELL         CLOUDY    77  72  83 NW6       29.77R

CITY           SKY/WX    TMP DP  RH WIND       PRES   REMARKS
JACKSON        PTSUNNY   81  67  62 W12       29.78S
LANSING        CLOUDY    78  71  79 NW8       29.78S
MASON          CLOUDY    78  72  82 NW10      29.78S
MONROE         MOSUNNY   85  73  66 SW10      29.72F HX  92
MT. CLEMENS    PTSUNNY   80  73  79 E6        29.71F
PONTIAC        PTSUNNY   78  72  81 N12       29.74S
PORT HOPE        N/A     69  66  90 E16       29.78F
PORT HURON     CLOUDY    75  68  78 E7        29.75F
TRI CITIES     CLOUDY    74  71  91 N6        29.78R
YPSILANTI      MOSUNNY   91  69  48 NW15      29.73F HX  96
$$
MIZ043>046-050>051-056>058-064>065-071>073-077>080-222200-
SOUTHWEST LOWER MICHIGAN

CITY           SKY/WX    TMP DP  RH WIND       PRES   REMARKS
BATTLE CREEK   MOSUNNY   81  69  67 W10       29.80F
BENTON HARBOR  CLOUDY    77  67  71 W8        29.82F
BIG RAPIDS     PTSUNNY   76  65  69 N7        29.80S
COLDWATER      PTSUNNY   82  68  63 NW8       29.80S
HOLLAND        CLOUDY    75  69  81 NW8       29.81S
GRAND RAPIDS   PTSUNNY   83  71  67 W12       29.78F
KALAMAZOO      PTSUNNY   82  66  58 W15       29.80F
MARSHALL       CLOUDY    83  69  62 W9G16     29.78F
MOUNT PLEASANT CLOUDY    75  66  73 N9        29.79S
MUSKEGON       PTSUNNY   78  70  76 W13       29.80R
STURGIS        PTSUNNY   81  69  67 NW7       29.79F
$$
MIZ016>042-222200-
NORTHERN LOWER MICHIGAN

CITY           SKY/WX    TMP DP  RH WIND       PRES   REMARKS
ALPENA         CLOUDY    74  68  81 E7        29.83S
BEAVER ISLAND  CLOUDY    75  66  72 E3        29.81S
BELLAIRE       MOSUNNY   81  65  57 N5        29.78F
CADILLAC       CLOUDY    78  65  64 NW3       29.81S
CHARLEVOIX     SUNNY     76  67  71 N8        29.82F
GAYLORD        CLOUDY    75  64  68 SE14      29.82S
HOUGHTON LAKE  PTSUNNY   75  65  70 E6        29.83R
OSCODA         CLOUDY    69  67  92 SE6       29.81S FOG
PELLSTON       PTSUNNY   80  64  58 E8        29.81F
TRAVERSE CITY  MOSUNNY   80  65  59 NE8       29.78F
LUDINGTON      CLOUDY    77  69  77 W8        29.79S
$$
MIZ007>008-015-222200-
EASTERN UPPER MICHIGAN

CITY           SKY/WX    TMP DP  RH WIND       PRES   REMARKS
KINROSS        CLOUDY    74  60  61 NE8       29.83F
MACKINAC ISLAN MOSUNNY   71  64  78 E13       29.82F
NEWBERRY       CLOUDY    73  65  77 E3        29.82S
S. S. MARIE    CLOUDY    75  60  59 VRB3      29.83F
$$
MIZ004>006-011>014-085-222200-
CENTRAL UPPER MICHIGAN

CITY           SKY/WX    TMP DP  RH WIND       PRES   REMARKS
MANISTIQUE     CLOUDY    72  65  78 SE6       29.81F
ESCANABA       PTSUNNY   76  65  68 SE7       29.80F
MENOMINEE      MOSUNNY   78  67  68 S6        29.81R
SAWYER-GWINN   PTSUNNY   79  64  61 SE7       29.80S
$$
MIZ001>003-009>011-084-222200-
WESTERN UPPER MICHIGAN

CITY           SKY/WX    TMP DP  RH WIND       PRES   REMARKS
IRON MOUNTAIN  MOSUNNY   80  65  59 S6        29.78F
HOUGHTON       CLOUDY    66  57  72 E12       29.82F
COPPER HARBOR    N/A     66  53  63 S8        29.83S
IRONWOOD       MOSUNNY   74  65  73 NW9       29.83R
$$

ABBREVIATIONS USED IN REMARKS
   TC - TEMPERATURE IN CELSIUS
  WCI - WIND CHILL INDEX
   HX - HEAT INDEX
  VSB - VISIBILITY





USA.gov is the U.S. government's official web portal to all federal, state and local government web resources and services.